Time,TemperatureF,DewpointF,PressureIn,WindDirection,WindDirectionDegrees,WindSpeedMPH,WindSpeedGustMPH,Humidity,HourlyPrecipIn,Conditions,Clouds,dailyrainin,SoftwareType,DateUTC
2013-02-18 00:00:00,17.4,0.2,29.38,WSW,248,0.0,2.6,46,0.00,,,0.00,VWS V14.00,2013-02-18 05:00:00,
2013-02-18 00:05:00,17.2,0.0,29.38,WNW,292,0.0,3.0,46,0.00,,,0.00,VWS V14.00,2013-02-18 05:05:00,
2013-02-18 00:10:00,17.1,-0.1,29.38,WNW,292,0.0,1.0,46,0.00,,,0.00,VWS V14.00,2013-02-18 05:10:00,
2013-02-18 00:15:00,17.1,-0.1,29.38,South,180,0.0,1.0,46,0.00,,,0.00,VWS V14.00,2013-02-18 05:15:00,
2013-02-18 00:20:00,17.1,-0.1,29.38,SSW,202,0.0,1.0,46,0.00,,,0.00,VWS V14.00,2013-02-18 05:20:00,
2013-02-18 00:25:00,17.1,-0.1,29.38,ESE,112,0.0,1.0,46,0.00,,,0.00,VWS V14.00,2013-02-18 05:25:00,
2013-02-18 00:30:00,16.9,-0.3,29.41,SW,225,0.0,3.3,46,0.00,,,0.00,VWS V14.00,2013-02-18 05:30:00,
2013-02-18 00:35:00,16.9,-0.3,29.41,NNW,338,0.0,1.0,46,0.00,,,0.00,VWS V14.00,2013-02-18 05:35:00,
2013-02-18 00:40:00,16.9,-0.3,29.41,SSW,202,0.0,1.0,46,0.00,,,0.00,VWS V14.00,2013-02-18 05:40:00,
2013-02-18 00:45:00,16.9,-0.3,29.41,NNW,338,2.3,3.3,46,0.00,,,0.00,VWS V14.00,2013-02-18 05:45:00,
2013-02-18 00:50:00,16.7,-0.5,29.41,North,0,0.0,1.0,46,0.00,,,0.00,VWS V14.00,2013-02-18 05:50:00,
2013-02-18 00:55:00,16.7,-0.5,29.41,SSW,202,0.0,1.0,46,0.00,,,0.00,VWS V14.00,2013-02-18 05:55:00,
2013-02-18 01:00:00,16.7,-0.5,29.41,East,90,3.9,4.9,46,0.00,,,0.00,VWS V14.00,2013-02-18 06:00:00,
2013-02-18 01:05:00,16.5,-0.6,29.41,NE,45,0.0,1.0,46,0.00,,,0.00,VWS V14.00,2013-02-18 06:05:00,
2013-02-18 01:10:00,16.5,-0.6,29.41,WNW,292,0.0,1.0,46,0.00,,,0.00,VWS V14.00,2013-02-18 06:10:00,
2013-02-18 01:15:00,16.5,-0.6,29.41,SSE,158,6.7,7.7,46,0.00,,,0.00,VWS V14.00,2013-02-18 06:15:00,
2013-02-18 01:20:00,16.5,-0.6,29.41,West,270,0.0,1.0,46,0.00,,,0.00,VWS V14.00,2013-02-18 06:20:00,
2013-02-18 01:25:00,16.3,-0.8,29.41,NNW,338,2.3,4.9,46,0.00,,,0.00,VWS V14.00,2013-02-18 06:25:00,
2013-02-18 01:30:00,16.3,-0.8,29.41,WSW,248,0.0,1.0,46,0.00,,,0.00,VWS V14.00,2013-02-18 06:30:00,
2013-02-18 01:35:00,16.3,-0.8,29.41,North,0,0.0,1.0,46,0.00,,,0.00,VWS V14.00,2013-02-18 06:35:00,
2013-02-18 01:40:00,16.2,-1.0,29.41,South,180,0.0,1.0,46,0.00,,,0.00,VWS V14.00,2013-02-18 06:40:00,
2013-02-18 01:45:00,16.2,-1.0,29.44,SW,225,0.0,1.0,46,0.00,,,0.00,VWS V14.00,2013-02-18 06:45:00,
2013-02-18 01:50:00,16.2,-1.0,29.44,SW,225,0.0,1.0,46,0.00,,,0.00,VWS V14.00,2013-02-18 06:50:00,
2013-02-18 01:55:00,16.2,-1.0,29.44,SW,225,0.0,1.0,46,0.00,,,0.00,VWS V14.00,2013-02-18 06:55:00,
2013-02-18 02:00:00,16.2,-1.0,29.44,NNW,338,0.0,1.0,46,0.00,,,0.00,VWS V14.00,2013-02-18 07:00:00,
2013-02-18 02:05:00,16.2,-1.0,29.44,NE,45,0.0,1.0,46,0.00,,,0.00,VWS V14.00,2013-02-18 07:05:00,
2013-02-18 02:10:00,16.2,-1.0,29.44,ENE,68,0.0,2.6,46,0.00,,,0.00,VWS V14.00,2013-02-18 07:10:00,
2013-02-18 02:15:00,16.0,-1.1,29.44,NE,45,3.9,4.9,46,0.00,,,0.00,VWS V14.00,2013-02-18 07:15:00,
2013-02-18 02:20:00,16.0,-1.1,29.44,SSE,158,0.0,1.0,46,0.00,,,0.00,VWS V14.00,2013-02-18 07:20:00,
2013-02-18 02:25:00,16.0,-1.1,29.44,WNW,292,0.0,1.0,46,0.00,,,0.00,VWS V14.00,2013-02-18 07:25:00,
2013-02-18 02:30:00,16.0,-1.1,29.44,ENE,68,0.0,1.0,46,0.00,,,0.00,VWS V14.00,2013-02-18 07:30:00,
2013-02-18 02:35:00,16.0,-1.1,29.44,SE,135,0.0,1.0,46,0.00,,,0.00,VWS V14.00,2013-02-18 07:35:00,
2013-02-18 02:40:00,16.0,-1.1,29.44,South,180,3.9,4.9,46,0.00,,,0.00,VWS V14.00,2013-02-18 07:40:00,
2013-02-18 02:45:00,15.8,-0.9,29.44,NNE,22,2.0,3.0,47,0.00,,,0.00,VWS V14.00,2013-02-18 07:45:00,
2013-02-18 02:50:00,15.8,-0.9,29.44,WSW,248,0.0,1.0,47,0.00,,,0.00,VWS V14.00,2013-02-18 07:50:00,
2013-02-18 02:55:00,15.8,-0.9,29.44,North,0,2.3,3.3,47,0.00,,,0.00,VWS V14.00,2013-02-18 07:55:00,
2013-02-18 03:00:00,15.6,-1.0,29.44,South,180,0.0,1.0,47,0.00,,,0.00,VWS V14.00,2013-02-18 08:00:00,
2013-02-18 03:05:00,15.4,-1.2,29.44,NNW,338,0.0,1.0,47,0.00,,,0.00,VWS V14.00,2013-02-18 08:05:00,
2013-02-18 03:10:00,15.4,-1.2,29.44,WSW,248,0.0,1.0,47,0.00,,,0.00,VWS V14.00,2013-02-18 08:10:00,
2013-02-18 03:15:00,15.4,-1.2,29.47,South,180,0.0,1.0,47,0.00,,,0.00,VWS V14.00,2013-02-18 08:15:00,
2013-02-18 03:20:00,15.4,-1.2,29.47,SSW,202,0.0,1.0,47,0.00,,,0.00,VWS V14.00,2013-02-18 08:20:00,
2013-02-18 03:25:00,15.3,-1.3,29.47,SW,225,2.7,3.7,47,0.00,,,0.00,VWS V14.00,2013-02-18 08:25:00,
2013-02-18 03:30:00,15.3,-1.3,29.47,WSW,248,0.0,1.0,47,0.00,,,0.00,VWS V14.00,2013-02-18 08:30:00,
2013-02-18 03:35:00,15.4,-1.2,29.47,North,0,0.0,1.0,47,0.00,,,0.00,VWS V14.00,2013-02-18 08:35:00,
2013-02-18 03:40:00,15.3,-1.3,29.47,SSE,158,0.0,1.0,47,0.00,,,0.00,VWS V14.00,2013-02-18 08:40:00,
2013-02-18 03:45:00,15.1,-1.5,29.47,NW,315,2.0,3.0,47,0.00,,,0.00,VWS V14.00,2013-02-18 08:45:00,
2013-02-18 03:50:00,15.1,-1.5,29.47,ENE,68,0.0,1.0,47,0.00,,,0.00,VWS V14.00,2013-02-18 08:50:00,
2013-02-18 03:55:00,15.1,-1.5,29.47,SW,225,0.0,1.0,47,0.00,,,0.00,VWS V14.00,2013-02-18 08:55:00,
2013-02-18 04:00:00,15.1,-1.5,29.47,SE,135,0.0,1.0,47,0.00,,,0.00,VWS V14.00,2013-02-18 09:00:00,
2013-02-18 04:05:00,15.1,-1.5,29.47,NW,315,0.0,1.0,47,0.00,,,0.00,VWS V14.00,2013-02-18 09:05:00,
2013-02-18 04:10:00,15.1,-1.5,29.47,ESE,112,0.0,1.0,47,0.00,,,0.00,VWS V14.00,2013-02-18 09:10:00,
2013-02-18 04:15:00,14.9,-1.7,29.50,NE,45,0.0,1.0,47,0.00,,,0.00,VWS V14.00,2013-02-18 09:15:00,
2013-02-18 04:20:00,14.9,-1.7,29.50,SSW,202,0.0,1.0,47,0.00,,,0.00,VWS V14.00,2013-02-18 09:20:00,
2013-02-18 04:25:00,14.9,-1.7,29.50,NNE,22,10.2,11.2,47,0.00,,,0.00,VWS V14.00,2013-02-18 09:25:00,
2013-02-18 04:30:00,14.9,-1.7,29.50,ENE,68,0.0,1.0,47,0.00,,,0.00,VWS V14.00,2013-02-18 09:30:00,
2013-02-18 04:35:00,14.9,-1.7,29.50,NW,315,0.0,1.0,47,0.00,,,0.00,VWS V14.00,2013-02-18 09:35:00,
2013-02-18 04:40:00,14.9,-1.7,29.50,East,90,0.0,1.0,47,0.00,,,0.00,VWS V14.00,2013-02-18 09:40:00,
2013-02-18 04:45:00,14.9,-1.7,29.53,NE,45,0.0,1.0,47,0.00,,,0.00,VWS V14.00,2013-02-18 09:45:00,
2013-02-18 04:50:00,14.9,-1.7,29.53,SW,225,0.0,1.0,47,0.00,,,0.00,VWS V14.00,2013-02-18 09:50:00,
2013-02-18 04:55:00,14.9,-1.7,29.53,SW,225,0.0,1.0,47,0.00,,,0.00,VWS V14.00,2013-02-18 09:55:00,
2013-02-18 05:00:00,14.9,-1.7,29.53,South,180,0.0,1.0,47,0.00,,,0.00,VWS V14.00,2013-02-18 10:00:00,
2013-02-18 05:05:00,14.9,-1.7,29.53,WSW,248,0.0,1.0,47,0.00,,,0.00,VWS V14.00,2013-02-18 10:05:00,
2013-02-18 05:10:00,14.9,-1.7,29.53,NE,45,0.0,1.0,47,0.00,,,0.00,VWS V14.00,2013-02-18 10:10:00,
2013-02-18 05:15:00,14.9,-1.7,29.53,South,180,0.0,7.7,47,0.00,,,0.00,VWS V14.00,2013-02-18 10:15:00,
2013-02-18 05:20:00,14.9,-1.7,29.53,SSE,158,0.0,5.3,47,0.00,,,0.00,VWS V14.00,2013-02-18 10:20:00,
2013-02-18 05:25:00,15.1,-1.5,29.53,South,180,0.0,1.0,47,0.00,,,0.00,VWS V14.00,2013-02-18 10:25:00,
2013-02-18 05:30:00,14.9,-1.7,29.53,West,270,0.0,1.0,47,0.00,,,0.00,VWS V14.00,2013-02-18 10:30:00,
2013-02-18 05:35:00,14.9,-1.7,29.53,NE,45,0.0,1.0,47,0.00,,,0.00,VWS V14.00,2013-02-18 10:35:00,
2013-02-18 05:40:00,14.9,-1.7,29.53,South,180,0.0,1.0,47,0.00,,,0.00,VWS V14.00,2013-02-18 10:40:00,
2013-02-18 05:45:00,14.9,-1.7,29.56,ENE,68,7.0,8.0,47,0.00,,,0.00,VWS V14.00,2013-02-18 10:45:00,
2013-02-18 05:50:00,14.9,-1.7,29.56,SSW,202,1.6,2.6,47,0.00,,,0.00,VWS V14.00,2013-02-18 10:50:00,
2013-02-18 05:55:00,14.9,-1.7,29.56,NNE,22,0.0,1.0,47,0.00,,,0.00,VWS V14.00,2013-02-18 10:55:00,
2013-02-18 06:00:00,14.9,-1.7,29.56,SSW,202,0.0,1.0,47,0.00,,,0.00,VWS V14.00,2013-02-18 11:00:00,
2013-02-18 06:05:00,14.9,-1.7,29.56,SSW,202,8.2,9.2,47,0.00,,,0.00,VWS V14.00,2013-02-18 11:05:00,
2013-02-18 06:10:00,14.9,-1.7,29.56,NE,45,0.0,1.0,47,0.00,,,0.00,VWS V14.00,2013-02-18 11:10:00,
2013-02-18 06:15:00,14.9,-1.7,29.56,East,90,0.0,1.0,47,0.00,,,0.00,VWS V14.00,2013-02-18 11:15:00,
2013-02-18 06:20:00,14.9,-1.7,29.56,SSW,202,0.0,1.0,47,0.00,,,0.00,VWS V14.00,2013-02-18 11:20:00,
2013-02-18 06:25:00,14.9,-1.7,29.56,West,270,1.6,2.6,47,0.00,,,0.00,VWS V14.00,2013-02-18 11:25:00,
2013-02-18 06:30:00,14.9,-1.7,29.56,NNW,338,2.7,3.7,47,0.00,,,0.00,VWS V14.00,2013-02-18 11:30:00,
2013-02-18 06:35:00,14.7,-1.8,29.56,ENE,68,0.0,1.0,47,0.00,,,0.00,VWS V14.00,2013-02-18 11:35:00,
2013-02-18 06:40:00,14.7,-1.8,29.56,North,0,0.0,1.0,47,0.00,,,0.00,VWS V14.00,2013-02-18 11:40:00,
2013-02-18 06:45:00,14.7,-1.8,29.59,North,0,0.0,1.0,47,0.00,,,0.00,VWS V14.00,2013-02-18 11:45:00,
2013-02-18 06:50:00,14.7,-1.8,29.59,North,0,3.9,4.9,47,0.00,,,0.00,VWS V14.00,2013-02-18 11:50:00,
2013-02-18 06:55:00,14.7,-1.8,29.59,South,180,3.5,4.5,47,0.00,,,0.00,VWS V14.00,2013-02-18 11:55:00,
2013-02-18 07:00:00,14.7,-1.8,29.59,SSW,202,0.0,1.0,47,0.00,,,0.00,VWS V14.00,2013-02-18 12:00:00,
2013-02-18 07:05:00,14.9,-1.7,29.59,WSW,248,0.0,1.0,47,0.00,,,0.00,VWS V14.00,2013-02-18 12:05:00,
2013-02-18 07:10:00,14.7,-1.8,29.59,NNE,22,0.0,1.0,47,0.00,,,0.00,VWS V14.00,2013-02-18 12:10:00,
2013-02-18 07:15:00,14.7,-1.8,29.59,SSW,202,1.6,2.6,47,0.00,,,0.00,VWS V14.00,2013-02-18 12:15:00,
2013-02-18 07:20:00,14.9,-1.7,29.59,NNW,338,0.0,1.0,47,0.00,,,0.00,VWS V14.00,2013-02-18 12:20:00,
2013-02-18 07:25:00,14.9,-1.7,29.59,SSW,202,1.6,2.6,47,0.00,,,0.00,VWS V14.00,2013-02-18 12:25:00,
2013-02-18 07:30:00,14.9,-1.7,29.62,West,270,0.0,1.0,47,0.00,,,0.00,VWS V14.00,2013-02-18 12:30:00,
2013-02-18 07:35:00,14.9,-1.7,29.62,South,180,0.0,1.0,47,0.00,,,0.00,VWS V14.00,2013-02-18 12:35:00,
2013-02-18 07:40:00,15.1,-1.5,29.62,North,0,0.0,1.0,47,0.00,,,0.00,VWS V14.00,2013-02-18 12:40:00,
2013-02-18 07:45:00,15.1,-1.5,29.62,West,270,0.0,1.0,47,0.00,,,0.00,VWS V14.00,2013-02-18 12:45:00,
2013-02-18 07:50:00,15.1,-1.5,29.62,SSW,202,1.6,2.6,47,0.00,,,0.00,VWS V14.00,2013-02-18 12:50:00,
2013-02-18 07:55:00,15.3,-1.3,29.62,NNE,22,0.0,2.6,47,0.00,,,0.00,VWS V14.00,2013-02-18 12:55:00,
2013-02-18 08:00:00,15.4,-1.2,29.62,SSW,202,0.0,1.0,47,0.00,,,0.00,VWS V14.00,2013-02-18 13:00:00,
2013-02-18 08:05:00,15.6,-1.0,29.62,West,270,0.0,1.0,47,0.00,,,0.00,VWS V14.00,2013-02-18 13:05:00,
2013-02-18 08:10:00,15.8,-0.9,29.62,West,270,1.6,2.6,47,0.00,,,0.00,VWS V14.00,2013-02-18 13:10:00,
2013-02-18 08:15:00,16.0,-0.7,29.62,NNE,22,0.0,1.0,47,0.00,,,0.00,VWS V14.00,2013-02-18 13:15:00,
2013-02-18 08:20:00,16.2,-1.0,29.62,SSW,202,2.7,3.7,46,0.00,,,0.00,VWS V14.00,2013-02-18 13:20:00,
2013-02-18 08:25:00,16.5,-0.6,29.62,WSW,248,4.7,5.7,46,0.00,,,0.00,VWS V14.00,2013-02-18 13:25:00,
2013-02-18 08:30:00,16.7,-0.5,29.62,SSW,202,0.0,1.0,46,0.00,,,0.00,VWS V14.00,2013-02-18 13:30:00,
2013-02-18 08:35:00,16.9,-0.3,29.62,SSW,202,0.0,1.0,46,0.00,,,0.00,VWS V14.00,2013-02-18 13:35:00,
2013-02-18 08:40:00,17.4,0.6,29.62,North,0,6.3,7.3,47,0.00,,,0.00,VWS V14.00,2013-02-18 13:40:00,
2013-02-18 08:45:00,17.8,0.5,29.65,ESE,112,0.0,2.6,46,0.00,,,0.00,VWS V14.00,2013-02-18 13:45:00,
2013-02-18 08:50:00,18.1,0.9,29.65,South,180,0.0,1.0,46,0.00,,,0.00,VWS V14.00,2013-02-18 13:50:00,
2013-02-18 08:55:00,18.3,1.0,29.65,North,0,6.3,7.3,46,0.00,,,0.00,VWS V14.00,2013-02-18 13:55:00,
2013-02-18 09:00:00,18.5,1.2,29.65,NE,45,4.3,5.3,46,0.00,,,0.00,VWS V14.00,2013-02-18 14:00:00,
2013-02-18 09:05:00,18.9,1.5,29.65,ESE,112,0.0,1.0,46,0.00,,,0.00,VWS V14.00,2013-02-18 14:05:00,
2013-02-18 09:10:00,19.2,1.8,29.65,East,90,0.0,1.0,46,0.00,,,0.00,VWS V14.00,2013-02-18 14:10:00,
2013-02-18 09:15:00,19.8,1.9,29.65,NE,45,6.3,7.3,45,0.00,,,0.00,VWS V14.00,2013-02-18 14:15:00,
2013-02-18 09:20:00,19.9,2.0,29.65,SW,225,0.0,1.0,45,0.00,,,0.00,VWS V14.00,2013-02-18 14:20:00,
2013-02-18 09:25:00,20.1,2.2,29.65,West,270,0.0,1.0,45,0.00,,,0.00,VWS V14.00,2013-02-18 14:25:00,
2013-02-18 09:30:00,20.5,2.5,29.68,SSW,202,0.0,1.0,45,0.00,,,0.00,VWS V14.00,2013-02-18 14:30:00,
2013-02-18 09:35:00,20.7,2.7,29.68,SW,225,0.0,1.0,45,0.00,,,0.00,VWS V14.00,2013-02-18 14:35:00,
2013-02-18 09:40:00,21.0,3.0,29.68,West,270,4.7,5.7,45,0.00,,,0.00,VWS V14.00,2013-02-18 14:40:00,
2013-02-18 09:45:00,21.2,3.2,29.68,South,180,5.9,6.9,45,0.00,,,0.00,VWS V14.00,2013-02-18 14:45:00,
2013-02-18 09:50:00,21.6,3.5,29.68,South,180,2.0,4.9,45,0.00,,,0.00,VWS V14.00,2013-02-18 14:50:00,
2013-02-18 09:55:00,21.7,3.7,29.68,West,270,0.0,1.0,45,0.00,,,0.00,VWS V14.00,2013-02-18 14:55:00,
2013-02-18 10:00:00,22.1,4.0,29.68,WNW,292,1.6,2.6,45,0.00,,,0.00,VWS V14.00,2013-02-18 15:00:00,
2013-02-18 10:05:00,22.3,4.2,29.68,SSE,158,0.0,4.9,45,0.00,,,0.00,VWS V14.00,2013-02-18 15:05:00,
2013-02-18 10:10:00,22.6,4.5,29.68,NW,315,0.0,1.0,45,0.00,,,0.00,VWS V14.00,2013-02-18 15:10:00,
2013-02-18 10:15:00,22.8,4.2,29.68,NNW,338,9.4,10.4,44,0.00,,,0.00,VWS V14.00,2013-02-18 15:15:00,
2013-02-18 10:20:00,23.2,4.5,29.68,NNE,22,10.2,11.2,44,0.00,,,0.00,VWS V14.00,2013-02-18 15:20:00,
2013-02-18 10:25:00,23.5,4.8,29.68,ESE,112,1.6,2.6,44,0.00,,,0.00,VWS V14.00,2013-02-18 15:25:00,
2013-02-18 10:30:00,23.5,4.8,29.68,SW,225,0.0,1.0,44,0.00,,,0.00,VWS V14.00,2013-02-18 15:30:00,
2013-02-18 10:35:00,23.9,5.2,29.68,East,90,2.0,3.0,44,0.00,,,0.00,VWS V14.00,2013-02-18 15:35:00,
2013-02-18 10:40:00,24.3,5.5,29.68,SE,135,3.5,4.5,44,0.00,,,0.00,VWS V14.00,2013-02-18 15:40:00,
2013-02-18 10:45:00,24.4,5.2,29.68,NNE,22,0.0,1.0,43,0.00,,,0.00,VWS V14.00,2013-02-18 15:45:00,
2013-02-18 10:50:00,24.6,5.8,29.68,NNW,338,3.5,4.5,44,0.00,,,0.00,VWS V14.00,2013-02-18 15:50:00,
2013-02-18 10:55:00,24.8,5.5,29.68,SW,225,1.6,3.7,43,0.00,,,0.00,VWS V14.00,2013-02-18 15:55:00,
2013-02-18 11:00:00,25.2,5.8,29.68,North,0,0.0,4.9,43,0.00,,,0.00,VWS V14.00,2013-02-18 16:00:00,
2013-02-18 11:05:00,25.5,6.2,29.68,WSW,248,2.0,3.0,43,0.00,,,0.00,VWS V14.00,2013-02-18 16:05:00,
2013-02-18 11:10:00,25.9,6.5,29.68,NNE,22,4.7,5.7,43,0.00,,,0.00,VWS V14.00,2013-02-18 16:10:00,
2013-02-18 11:15:00,26.1,6.6,29.68,East,90,0.0,1.0,43,0.00,,,0.00,VWS V14.00,2013-02-18 16:15:00,
2013-02-18 11:20:00,26.1,6.6,29.68,SSE,158,0.0,1.0,43,0.00,,,0.00,VWS V14.00,2013-02-18 16:20:00,
2013-02-18 11:25:00,26.2,6.8,29.68,SW,225,0.0,1.0,43,0.00,,,0.00,VWS V14.00,2013-02-18 16:25:00,
2013-02-18 11:30:00,26.6,7.1,29.68,ESE,112,0.0,4.5,43,0.00,,,0.00,VWS V14.00,2013-02-18 16:30:00,
2013-02-18 11:35:00,26.8,6.8,29.68,North,0,1.6,2.6,42,0.00,,,0.00,VWS V14.00,2013-02-18 16:35:00,
2013-02-18 11:40:00,27.0,6.9,29.68,North,0,2.7,3.7,42,0.00,,,0.00,VWS V14.00,2013-02-18 16:40:00,
2013-02-18 11:45:00,27.1,7.1,29.68,South,180,1.6,11.2,42,0.00,,,0.00,VWS V14.00,2013-02-18 16:45:00,
2013-02-18 11:50:00,27.1,7.1,29.68,ENE,68,9.8,10.8,42,0.00,,,0.00,VWS V14.00,2013-02-18 16:50:00,
2013-02-18 11:55:00,27.5,7.4,29.68,WSW,248,3.5,4.5,42,0.00,,,0.00,VWS V14.00,2013-02-18 16:55:00,
2013-02-18 12:00:00,27.5,7.4,29.68,NNW,338,0.0,1.0,42,0.00,,,0.00,VWS V14.00,2013-02-18 17:00:00,
2013-02-18 12:05:00,27.5,7.4,29.68,North,0,0.0,1.0,42,0.00,,,0.00,VWS V14.00,2013-02-18 17:05:00,
2013-02-18 12:10:00,27.9,7.8,29.68,ESE,112,0.0,1.0,42,0.00,,,0.00,VWS V14.00,2013-02-18 17:10:00,
2013-02-18 12:15:00,28.0,7.9,29.71,WSW,248,2.7,3.7,42,0.04,,,0.04,VWS V14.00,2013-02-18 17:15:00,
2013-02-18 12:20:00,28.4,8.2,29.71,South,180,0.0,1.0,42,0.12,,,0.12,VWS V14.00,2013-02-18 17:20:00,
2013-02-18 12:25:00,28.2,8.1,29.71,SSE,158,0.0,1.0,42,0.25,,,0.25,VWS V14.00,2013-02-18 17:25:00,
2013-02-18 12:30:00,28.4,7.7,29.71,West,270,0.0,3.3,41,0.29,,,0.29,VWS V14.00,2013-02-18 17:30:00,
2013-02-18 12:35:00,28.6,7.9,29.71,SW,225,0.0,1.0,41,0.42,,,0.42,VWS V14.00,2013-02-18 17:35:00,
2013-02-18 12:40:00,28.8,8.0,29.71,WNW,292,0.0,3.3,41,0.58,,,0.58,VWS V14.00,2013-02-18 17:40:00,
2013-02-18 12:45:00,28.9,8.2,29.71,NNE,22,2.0,3.0,41,0.79,,,0.79,VWS V14.00,2013-02-18 17:45:00,
2013-02-18 12:50:00,28.9,8.2,29.71,SSW,202,5.1,6.1,41,0.79,,,0.79,VWS V14.00,2013-02-18 17:50:00,
2013-02-18 12:55:00,29.1,8.4,29.71,East,90,0.0,7.7,41,0.92,,,0.92,VWS V14.00,2013-02-18 17:55:00,
2013-02-18 13:00:00,29.3,8.5,29.71,NW,315,0.0,1.0,41,1.00,,,1.00,VWS V14.00,2013-02-18 18:00:00,
2013-02-18 13:05:00,29.5,8.7,29.71,NW,315,2.0,3.0,41,1.00,,,1.00,VWS V14.00,2013-02-18 18:05:00,
2013-02-18 13:10:00,29.1,8.4,29.71,WNW,292,0.0,1.0,41,1.20,,,1.20,VWS V14.00,2013-02-18 18:10:00,
2013-02-18 13:15:00,29.3,8.5,29.71,WNW,292,0.0,1.0,41,1.21,,,1.25,VWS V14.00,2013-02-18 18:15:00,
2013-02-18 13:20:00,29.5,8.7,29.71,WNW,292,0.0,1.0,41,1.17,,,1.29,VWS V14.00,2013-02-18 18:20:00,
2013-02-18 13:25:00,29.5,8.7,29.71,NE,45,0.0,1.0,41,1.16,,,1.41,VWS V14.00,2013-02-18 18:25:00,
2013-02-18 13:30:00,29.5,8.7,29.74,WSW,248,5.5,6.5,41,1.25,,,1.54,VWS V14.00,2013-02-18 18:30:00,
2013-02-18 13:35:00,29.7,8.9,29.74,SSW,202,0.0,1.0,41,1.20,,,1.66,VWS V14.00,2013-02-18 18:35:00,
2013-02-18 13:40:00,29.7,8.9,29.74,NNW,338,2.7,3.7,41,1.21,,,1.79,VWS V14.00,2013-02-18 18:40:00,
2013-02-18 13:45:00,29.5,8.7,29.74,SW,225,0.0,1.0,41,1.04,,,1.83,VWS V14.00,2013-02-18 18:45:00,
2013-02-18 13:50:00,29.7,8.9,29.74,WNW,292,0.0,1.0,41,1.12,,,1.91,VWS V14.00,2013-02-18 18:50:00,
2013-02-18 13:55:00,29.5,8.7,29.74,SSE,158,0.0,1.0,41,1.07,,,1.99,VWS V14.00,2013-02-18 18:55:00,
2013-02-18 14:00:00,29.7,8.9,29.74,SW,225,2.3,3.3,41,1.03,,,2.03,VWS V14.00,2013-02-18 19:00:00,
2013-02-18 14:05:00,29.7,8.9,29.74,WNW,292,2.7,3.7,41,1.00,,,2.08,VWS V14.00,2013-02-18 19:05:00,
2013-02-18 14:10:00,29.7,8.9,29.74,WNW,292,0.0,1.0,41,0.92,,,2.12,VWS V14.00,2013-02-18 19:10:00,
2013-02-18 14:15:00,29.5,8.7,29.74,West,270,0.0,1.0,41,0.91,,,2.16,VWS V14.00,2013-02-18 19:15:00,
2013-02-18 14:20:00,29.5,8.7,29.74,NE,45,0.0,1.0,41,0.87,,,2.16,VWS V14.00,2013-02-18 19:20:00,
2013-02-18 14:25:00,29.7,8.9,29.74,East,90,3.9,4.9,41,0.87,,,2.24,VWS V14.00,2013-02-18 19:25:00,
2013-02-18 14:30:00,29.7,8.9,29.74,NE,45,0.0,1.0,41,0.75,,,2.29,VWS V14.00,2013-02-18 19:30:00,
2013-02-18 14:35:00,29.7,8.9,29.74,WSW,248,2.3,3.3,41,0.67,,,2.33,VWS V14.00,2013-02-18 19:35:00,
2013-02-18 14:40:00,29.5,8.7,29.74,NNE,22,0.0,1.0,41,0.54,,,2.33,VWS V14.00,2013-02-18 19:40:00,
2013-02-18 14:45:00,29.5,8.7,29.74,NNW,338,0.0,1.0,41,0.54,,,2.37,VWS V14.00,2013-02-18 19:45:00,
2013-02-18 14:50:00,29.7,8.9,29.74,NE,45,0.0,1.0,41,0.58,,,2.49,VWS V14.00,2013-02-18 19:50:00,
2013-02-18 14:55:00,29.7,8.9,29.74,NE,45,0.0,3.0,41,0.54,,,2.53,VWS V14.00,2013-02-18 19:55:00,
2013-02-18 15:00:00,29.5,8.7,29.74,WSW,248,2.7,3.7,41,0.54,,,2.53,VWS V14.00,2013-02-18 20:00:00,
2013-02-18 15:05:00,29.3,8.5,29.74,NNW,338,5.1,6.1,41,0.49,,,2.57,VWS V14.00,2013-02-18 20:05:00,
2013-02-18 15:10:00,29.1,8.4,29.74,SSE,158,0.0,5.3,41,0.45,,,2.57,VWS V14.00,2013-02-18 20:10:00,
2013-02-18 15:15:00,29.1,8.4,29.76,WNW,292,1.6,4.5,41,0.41,,,2.57,VWS V14.00,2013-02-18 20:15:00,
2013-02-18 15:20:00,28.9,7.7,29.76,NNE,22,0.0,1.0,40,0.41,,,2.57,VWS V14.00,2013-02-18 20:20:00,
2013-02-18 15:25:00,28.9,7.7,29.76,South,180,0.0,3.0,40,0.37,,,2.57,VWS V14.00,2013-02-18 20:25:00,
2013-02-18 15:30:00,28.9,7.7,29.76,SE,135,0.0,5.7,40,0.33,,,2.57,VWS V14.00,2013-02-18 20:30:00,
2013-02-18 15:35:00,28.9,7.7,29.76,NNE,22,0.0,1.0,40,0.24,,,2.57,VWS V14.00,2013-02-18 20:35:00,
2013-02-18 15:40:00,28.9,7.7,29.76,North,0,0.0,8.8,40,0.24,,,2.57,VWS V14.00,2013-02-18 20:40:00,
2013-02-18 15:45:00,28.8,7.5,29.76,NNW,338,0.0,1.0,40,0.20,,,2.57,VWS V14.00,2013-02-18 20:45:00,
2013-02-18 15:50:00,28.8,7.5,29.76,SW,225,0.0,1.0,40,0.12,,,2.57,VWS V14.00,2013-02-18 20:50:00,
2013-02-18 15:55:00,28.8,7.5,29.76,East,90,0.0,1.0,40,0.08,,,2.57,VWS V14.00,2013-02-18 20:55:00,
2013-02-18 16:00:00,28.8,7.5,29.76,SW,225,0.0,1.0,40,0.04,,,2.57,VWS V14.00,2013-02-18 21:00:00,
2013-02-18 16:05:00,28.8,7.5,29.76,South,180,0.0,3.3,40,0.00,,,2.57,VWS V14.00,2013-02-18 21:05:00,
2013-02-18 16:10:00,28.8,7.5,29.76,West,270,0.0,1.0,40,0.00,,,2.57,VWS V14.00,2013-02-18 21:10:00,
2013-02-18 16:15:00,28.8,7.5,29.76,SSE,158,0.0,1.0,40,0.00,,,2.57,VWS V14.00,2013-02-18 21:15:00,
2013-02-18 16:20:00,28.8,7.5,29.76,West,270,0.0,1.0,40,0.00,,,2.57,VWS V14.00,2013-02-18 21:20:00,
2013-02-18 16:25:00,28.8,6.9,29.76,NNW,338,0.0,1.0,39,0.00,,,2.57,VWS V14.00,2013-02-18 21:25:00,
2013-02-18 16:30:00,28.6,6.8,29.79,NNW,338,0.0,1.0,39,0.00,,,2.57,VWS V14.00,2013-02-18 21:30:00,
2013-02-18 16:35:00,28.6,6.8,29.79,WNW,292,0.0,1.0,39,0.00,,,2.57,VWS V14.00,2013-02-18 21:35:00,
2013-02-18 16:40:00,28.6,6.8,29.79,ESE,112,0.0,1.0,39,0.00,,,2.57,VWS V14.00,2013-02-18 21:40:00,
2013-02-18 16:45:00,28.6,6.8,29.79,ENE,68,0.0,1.0,39,0.00,,,2.57,VWS V14.00,2013-02-18 21:45:00,
2013-02-18 16:50:00,28.6,6.8,29.79,South,180,0.0,1.0,39,0.00,,,2.57,VWS V14.00,2013-02-18 21:50:00,
2013-02-18 16:55:00,28.4,7.2,29.79,SSW,202,0.0,1.0,40,0.00,,,2.57,VWS V14.00,2013-02-18 21:55:00,
2013-02-18 17:00:00,28.2,6.4,29.79,NNW,338,0.0,1.0,39,0.00,,,2.57,VWS V14.00,2013-02-18 22:00:00,
2013-02-18 17:05:00,28.2,7.0,29.79,SSW,202,0.0,1.0,40,0.00,,,2.57,VWS V14.00,2013-02-18 22:05:00,
2013-02-18 17:10:00,28.0,6.8,29.79,WNW,292,0.0,1.0,40,0.00,,,2.57,VWS V14.00,2013-02-18 22:10:00,
2013-02-18 17:15:00,27.9,6.7,29.79,WNW,292,0.0,1.0,40,0.00,,,2.57,VWS V14.00,2013-02-18 22:15:00,
2013-02-18 17:20:00,27.9,6.7,29.79,North,0,0.0,1.0,40,0.00,,,2.57,VWS V14.00,2013-02-18 22:20:00,
2013-02-18 17:25:00,27.7,6.5,29.79,ENE,68,0.0,1.0,40,0.00,,,2.57,VWS V14.00,2013-02-18 22:25:00,
2013-02-18 17:30:00,27.5,6.4,29.79,ESE,112,0.0,1.0,40,0.00,,,2.57,VWS V14.00,2013-02-18 22:30:00,
2013-02-18 17:36:00,27.5,6.4,29.79,SW,225,0.0,1.0,40,0.00,,,2.57,VWS V14.00,2013-02-18 22:36:00,
2013-02-18 17:41:00,27.3,6.2,29.79,WSW,248,0.0,1.0,40,0.00,,,2.57,VWS V14.00,2013-02-18 22:41:00,
2013-02-18 17:46:00,27.1,6.0,29.79,NNW,338,0.0,1.0,40,0.00,,,2.57,VWS V14.00,2013-02-18 22:46:00,
2013-02-18 17:51:00,27.1,6.0,29.79,NNW,338,0.0,1.0,40,0.00,,,2.57,VWS V14.00,2013-02-18 22:51:00,
2013-02-18 17:56:00,27.1,6.0,29.79,WNW,292,0.0,1.0,40,0.00,,,2.57,VWS V14.00,2013-02-18 22:56:00,
2013-02-18 18:01:00,27.0,6.4,29.82,SSW,202,0.0,1.0,41,0.00,,,2.57,VWS V14.00,2013-02-18 23:01:00,
2013-02-18 18:06:00,26.8,6.2,29.82,SSW,202,0.0,1.0,41,0.00,,,2.57,VWS V14.00,2013-02-18 23:06:00,
2013-02-18 18:11:00,26.8,6.2,29.82,NNW,338,0.0,1.0,41,0.00,,,2.57,VWS V14.00,2013-02-18 23:11:00,
2013-02-18 18:16:00,26.8,6.2,29.82,NNW,338,0.0,1.0,41,0.00,,,2.57,VWS V14.00,2013-02-18 23:16:00,
2013-02-18 18:21:00,26.6,6.1,29.82,NNW,338,0.0,1.0,41,0.00,,,2.57,VWS V14.00,2013-02-18 23:21:00,
2013-02-18 18:26:00,26.6,6.1,29.82,SSW,202,0.0,1.0,41,0.00,,,2.57,VWS V14.00,2013-02-18 23:26:00,
2013-02-18 18:31:00,26.4,5.9,29.82,NE,45,0.0,1.0,41,0.00,,,2.57,VWS V14.00,2013-02-18 23:31:00,
2013-02-18 18:36:00,26.4,5.9,29.82,SSW,202,0.0,1.0,41,0.00,,,2.57,VWS V14.00,2013-02-18 23:36:00,
2013-02-18 18:41:00,26.2,5.8,29.82,East,90,0.0,1.0,41,0.00,,,2.57,VWS V14.00,2013-02-18 23:41:00,
2013-02-18 18:46:00,26.2,5.8,29.82,SW,225,0.0,1.0,41,0.00,,,2.57,VWS V14.00,2013-02-18 23:46:00,
2013-02-18 18:51:00,26.1,5.6,29.82,WSW,248,0.0,1.0,41,0.00,,,2.57,VWS V14.00,2013-02-18 23:51:00,
2013-02-18 18:56:00,26.1,5.6,29.82,WSW,248,0.0,1.0,41,0.00,,,2.57,VWS V14.00,2013-02-18 23:56:00,
2013-02-18 19:01:00,25.9,5.4,29.82,SW,225,0.0,1.0,41,0.00,,,2.57,VWS V14.00,2013-02-19 00:01:00,
2013-02-18 19:06:00,25.9,5.4,29.82,SW,225,0.0,1.0,41,0.00,,,2.57,VWS V14.00,2013-02-19 00:06:00,
2013-02-18 19:11:00,25.9,5.4,29.82,WSW,248,0.0,1.0,41,0.00,,,2.57,VWS V14.00,2013-02-19 00:11:00,
2013-02-18 19:16:00,25.9,5.4,29.82,WSW,248,0.0,2.6,41,0.00,,,2.57,VWS V14.00,2013-02-19 00:16:00,
2013-02-18 19:21:00,25.7,5.3,29.82,WSW,248,0.0,1.0,41,0.00,,,2.57,VWS V14.00,2013-02-19 00:21:00,
2013-02-18 19:26:00,25.7,5.3,29.82,SSW,202,0.0,1.0,41,0.00,,,2.57,VWS V14.00,2013-02-19 00:26:00,
2013-02-18 19:31:00,25.5,5.1,29.82,WSW,248,0.0,1.0,41,0.00,,,2.57,VWS V14.00,2013-02-19 00:31:00,
2013-02-18 19:36:00,25.3,4.9,29.82,SW,225,0.0,1.0,41,0.00,,,2.57,VWS V14.00,2013-02-19 00:36:00,
2013-02-18 19:41:00,25.3,4.9,29.82,WNW,292,0.0,1.0,41,0.00,,,2.57,VWS V14.00,2013-02-19 00:41:00,
2013-02-18 19:46:00,25.2,4.8,29.82,NW,315,0.0,1.0,41,0.00,,,2.57,VWS V14.00,2013-02-19 00:46:00,
2013-02-18 19:51:00,25.2,4.8,29.82,SW,225,0.0,1.0,41,0.00,,,2.57,VWS V14.00,2013-02-19 00:51:00,
2013-02-18 19:56:00,25.2,4.8,29.82,WSW,248,0.0,1.0,41,0.00,,,2.57,VWS V14.00,2013-02-19 00:56:00,
2013-02-18 20:01:00,25.0,4.6,29.85,SSW,202,0.0,1.0,41,0.00,,,2.57,VWS V14.00,2013-02-19 01:01:00,
2013-02-18 20:06:00,25.0,4.6,29.85,SW,225,0.0,1.0,41,0.00,,,2.57,VWS V14.00,2013-02-19 01:06:00,
2013-02-18 20:11:00,24.8,5.0,29.85,SSW,202,0.0,1.0,42,0.00,,,2.57,VWS V14.00,2013-02-19 01:11:00,
2013-02-18 20:16:00,24.8,5.0,29.85,West,270,0.0,1.0,42,0.00,,,2.57,VWS V14.00,2013-02-19 01:16:00,
2013-02-18 20:21:00,24.8,5.0,29.85,North,0,0.0,1.0,42,0.00,,,2.57,VWS V14.00,2013-02-19 01:21:00,
2013-02-18 20:26:00,24.6,4.8,29.85,East,90,0.0,1.0,42,0.00,,,2.57,VWS V14.00,2013-02-19 01:26:00,
2013-02-18 20:31:00,24.6,4.8,29.85,SW,225,0.0,1.0,42,0.00,,,2.57,VWS V14.00,2013-02-19 01:31:00,
2013-02-18 20:36:00,24.4,4.7,29.85,SW,225,0.0,1.0,42,0.00,,,2.57,VWS V14.00,2013-02-19 01:36:00,
2013-02-18 20:41:00,24.4,4.7,29.85,NW,315,0.0,1.0,42,0.00,,,2.57,VWS V14.00,2013-02-19 01:41:00,
2013-02-18 20:46:00,24.4,4.7,29.85,SW,225,0.0,1.0,42,0.00,,,2.57,VWS V14.00,2013-02-19 01:46:00,
2013-02-18 20:51:00,24.4,4.7,29.85,SW,225,0.0,1.0,42,0.00,,,2.57,VWS V14.00,2013-02-19 01:51:00,
2013-02-18 20:56:00,24.3,4.5,29.85,NW,315,0.0,1.0,42,0.00,,,2.57,VWS V14.00,2013-02-19 01:56:00,
2013-02-18 21:01:00,24.3,4.5,29.85,SSW,202,0.0,1.0,42,0.00,,,2.57,VWS V14.00,2013-02-19 02:01:00,
2013-02-18 21:06:00,24.3,4.5,29.85,SSW,202,0.0,1.0,42,0.00,,,2.57,VWS V14.00,2013-02-19 02:06:00,
2013-02-18 21:11:00,24.1,4.3,29.85,SW,225,0.0,1.0,42,0.00,,,2.57,VWS V14.00,2013-02-19 02:11:00,
2013-02-18 21:16:00,24.1,4.3,29.85,WSW,248,0.0,1.0,42,0.00,,,2.57,VWS V14.00,2013-02-19 02:16:00,
2013-02-18 21:21:00,24.1,4.3,29.85,SW,225,0.0,1.0,42,0.00,,,2.57,VWS V14.00,2013-02-19 02:21:00,
2013-02-18 21:26:00,24.1,4.3,29.85,WSW,248,0.0,1.0,42,0.00,,,2.57,VWS V14.00,2013-02-19 02:26:00,
2013-02-18 21:31:00,24.1,4.3,29.85,WNW,292,0.0,1.0,42,0.00,,,2.57,VWS V14.00,2013-02-19 02:31:00,
2013-02-18 21:36:00,23.9,4.2,29.85,WSW,248,0.0,1.0,42,0.00,,,2.57,VWS V14.00,2013-02-19 02:36:00,
2013-02-18 21:41:00,23.9,4.2,29.85,SSW,202,0.0,1.0,42,0.00,,,2.57,VWS V14.00,2013-02-19 02:41:00,
2013-02-18 21:46:00,23.9,4.2,29.85,NW,315,0.0,1.0,42,0.00,,,2.57,VWS V14.00,2013-02-19 02:46:00,
2013-02-18 21:51:00,23.7,4.0,29.85,WSW,248,0.0,1.0,42,0.00,,,2.57,VWS V14.00,2013-02-19 02:51:00,
2013-02-18 21:56:00,23.7,4.0,29.85,WSW,248,0.0,1.0,42,0.00,,,2.57,VWS V14.00,2013-02-19 02:56:00,
2013-02-18 22:01:00,23.7,4.0,29.85,WSW,248,0.0,1.0,42,0.00,,,2.57,VWS V14.00,2013-02-19 03:01:00,
2013-02-18 22:06:00,23.7,4.0,29.85,WSW,248,0.0,1.0,42,0.00,,,2.57,VWS V14.00,2013-02-19 03:06:00,
2013-02-18 22:12:00,23.5,3.8,29.85,SW,225,0.0,1.0,42,0.00,,,2.57,VWS V14.00,2013-02-19 03:12:00,
2013-02-18 22:17:00,23.5,3.8,29.88,West,270,0.0,1.0,42,0.00,,,2.57,VWS V14.00,2013-02-19 03:17:00,
2013-02-18 22:22:00,23.5,3.8,29.88,WSW,248,0.0,1.0,42,0.00,,,2.57,VWS V14.00,2013-02-19 03:22:00,
2013-02-18 22:27:00,23.5,3.8,29.88,West,270,0.0,1.0,42,0.00,,,2.57,VWS V14.00,2013-02-19 03:27:00,
2013-02-18 22:32:00,23.4,3.7,29.88,SW,225,0.0,1.0,42,0.00,,,2.57,VWS V14.00,2013-02-19 03:32:00,
2013-02-18 22:37:00,23.4,3.7,29.88,SW,225,0.0,1.0,42,0.00,,,2.57,VWS V14.00,2013-02-19 03:37:00,
2013-02-18 22:42:00,23.4,3.7,29.88,SW,225,0.0,1.0,42,0.00,,,2.57,VWS V14.00,2013-02-19 03:42:00,
2013-02-18 22:47:00,23.4,3.7,29.88,West,270,0.0,1.0,42,0.00,,,2.57,VWS V14.00,2013-02-19 03:47:00,
2013-02-18 22:52:00,23.2,3.5,29.88,WSW,248,0.0,1.0,42,0.00,,,2.57,VWS V14.00,2013-02-19 03:52:00,
2013-02-18 22:57:00,23.2,3.5,29.88,SW,225,0.0,1.0,42,0.00,,,2.57,VWS V14.00,2013-02-19 03:57:00,
2013-02-18 23:02:00,23.2,3.5,29.88,SSW,202,0.0,1.0,42,0.00,,,2.57,VWS V14.00,2013-02-19 04:02:00,
2013-02-18 23:07:00,23.2,3.5,29.88,WSW,248,0.0,1.0,42,0.00,,,2.57,VWS V14.00,2013-02-19 04:07:00,
2013-02-18 23:12:00,23.2,3.5,29.88,WSW,248,0.0,1.0,42,0.00,,,2.57,VWS V14.00,2013-02-19 04:12:00,
2013-02-18 23:17:00,23.2,3.5,29.88,SSW,202,0.0,4.9,42,0.00,,,2.57,VWS V14.00,2013-02-19 04:17:00,
2013-02-18 23:22:00,23.2,3.5,29.88,SE,135,0.0,1.0,42,0.00,,,2.57,VWS V14.00,2013-02-19 04:22:00,
2013-02-18 23:27:00,23.2,3.5,29.88,ENE,68,0.0,1.0,42,0.00,,,2.57,VWS V14.00,2013-02-19 04:27:00,
2013-02-18 23:32:00,23.2,3.5,29.88,NW,315,0.0,1.0,42,0.00,,,2.57,VWS V14.00,2013-02-19 04:32:00,
2013-02-18 23:37:00,23.2,3.5,29.88,SW,225,1.6,2.6,42,0.00,,,2.57,VWS V14.00,2013-02-19 04:37:00,
2013-02-18 23:42:00,23.2,3.5,29.88,South,180,0.0,2.6,42,0.00,,,2.57,VWS V14.00,2013-02-19 04:42:00,
2013-02-18 23:47:00,23.2,3.5,29.88,WNW,292,0.0,1.0,42,0.00,,,2.57,VWS V14.00,2013-02-19 04:47:00,
2013-02-18 23:52:00,23.2,3.5,29.88,WNW,292,0.0,1.0,42,0.00,,,2.57,VWS V14.00,2013-02-19 04:52:00,
2013-02-18 23:57:00,23.0,3.8,29.88,WNW,292,0.0,1.0,43,0.00,,,0.00,VWS V14.00,2013-02-19 04:57:00,